Terug naar catalogus

SL-14 R/B

ActiefPO
NORAD 22287·ROCKET BODY·🇷🇺 Russia

Gelanceerd Dec 25, 1992 vanaf Plesetsk Cosmodrome

Loading…

Volgende Passages (komende 24 uur)

TLE

VersSource: Space-Track

Epoch: Sep 14, 2026, 22:04 UTC

1 22287U 92094B   26257.91994180  .00000278  00000-0  33266-4 0  9999
2 22287  82.5268 176.6094 0025341  76.5104 283.8930 14.80153997796513

Volg SL-14 R/B in realtime met AllMySat

Download on the App Store